Tracking 20623 objects as of 3-Apr-2020
HD Live streaming from Space Station
objects crossing your sky now

SL-8 R/B

Track SL-8 R/B now!
10-day predictions


NORAD ID: 17160
Int'l Code: 1986-093B
Perigee: 961.6 km
Apogee: 1,018.6 km
Inclination: 82.9 °
Period: 104.8 minutes
Semi major axis: 7361 km
RCS: 4.5547 m2 (large)
Launch date: November 24, 1986
Source: Commonwealth of Independent States (former USSR) (CIS)
Launch site: PLESETSK MISSILE AND SPACE COMPLEX (PKMTR)

Note: This is a ROCKET BODY
aabbcc
Your satellite tracking list
Your tracking list is empty




NASA's NSSDC Master Catalog

Two Line Element Set (TLE):
1 17160U 86093B   20093.85393977 +.00000011 +00000-0 -47960-5 0  9990
2 17160 082.9311 027.1072 0038700 182.3901 231.0313 13.74630913672827
Source of the keplerian elements: AFSPC